Location: Pisa
(43.7170°N, 10.3830°E)
Time: 07:55:11
(UTC+02:00)

ISS - Pass Details

Date: 14 May 2021
Orbit: 417 x 422 km, 51.6° (Epoch: 23 June)

Event Time Altitude Azimuth Distance (km) Brightness Sun altitude
Rises 22:47:25 0° 237° (WSW) 2,353 0.1 -18.9°
Reaches altitude 10° 22:49:30 10° 237° (WSW) 1,494 -0.9 -19.1°
Maximum altitude 22:52:51 90° 291° (WNW) 424 -3.9 -19.5°
Enters shadow 22:55:08 19° 58° (ENE) 1,058 -1.8 -19.7°
Exits shadow 22:57:09 - 58° (ENE) 1,878 -0.5 -19.9°
Sets 22:58:21 0° 58° (ENE) 2,373 0.0 -20.1°
